This demonstration page uses our WeatherBlox Daily Observations layout. Learn more.

Left ArrowRight Arrow

Hourly Observations for November 21, 2020

Temp ( °F °C ) Dew Point ( °F °C ) Humidity (%) Winds ( mph kmh ) Pressure ( in mb ) Visibility ( mi km ) Precip ( " mm )
12:52 am 00:52 Cloudy 36 2.2 32 0 86 86 N 9 15 30.54 1034 10 16 0.00 0.00
1:52 am 01:52 Cloudy 35 1.7 32 0 89 89 N 9 15 30.54 1034 10 16 0.00 0.00
2:52 am 02:52 Cloudy 34 1.1 31 -0.6 89 89 N 8 13 30.56 1035 10 16 0.00 0.00
3:52 am 03:52 Cloudy 34 1.1 32 0 92 92 NNW 7 11 30.55 1035 10 16 0.00 0.00
4:52 am 04:52 Cloudy 36 2.2 33 0.6 89 89 N 5 7 30.55 1035 10 16 0.00 0.00
5:52 am 05:52 Cloudy 37 2.8 33 0.6 86 86 ENE 3 6 30.55 1035 10 16 0.00 0.00
6:52 am 06:52 Cloudy 36 2.2 32 0 86 86 NW 3 6 30.56 1035 10 16 0.00 0.00
7:52 am 07:52 Cloudy 35 1.7 32 0 89 89 Calm 30.57 1035 10 16 0.00 0.00
8:52 am 08:52 Cloudy 38 3.3 30 -1.1 73 73 E 5 7 30.56 1035 10 16 0.00 0.00
9:52 am 09:52 Mostly Cloudy 40 4.4 30 -1.1 68 68 SE 7 11 30.55 1035 10 16 0.00 0.00
10:52 am 10:52 Mostly Cloudy 42 5.6 31 -0.6 65 65 SE 7 11 30.54 1034 10 16 0.00 0.00
11:52 am 11:52 Mostly Cloudy 43 6.1 31 -0.6 63 63 ESE 7 11 30.51 1033 10 16 0.00 0.00
12:52 pm 12:52 Mostly Cloudy 44 6.7 32 0 63 63 ESE 6 9 30.48 1032 10 16 0.00 0.00
1:52 pm 13:52 Mostly Cloudy 45 7.2 32 0 61 61 ESE 6 9 30.45 1031 10 16 0.00 0.00
2:52 pm 14:52 Mostly Cloudy 46 7.8 31 -0.6 56 56 E 6 9 30.43 1031 10 16 0.00 0.00
3:52 pm 15:52 Mostly Cloudy 46 7.8 31 -0.6 56 56 ESE 3 6 30.42 1030 10 16 0.00 0.00
4:52 pm 16:52 Cloudy 45 7.2 31 -0.6 58 58 SE 6 9 30.41 1030 10 16 0.00 0.00
5:52 pm 17:52 Cloudy 44 6.7 31 -0.6 60 60 SE 6 9 30.40 1030 10 16 0.00 0.00
6:52 pm 18:52 Mostly Cloudy 43 6.1 31 -0.6 63 63 SE 6 9 30.38 1029 10 16 0.00 0.00
7:52 pm 19:52 Mostly Cloudy 43 6.1 30 -1.1 60 60 SE 5 7 30.38 1029 10 16 0.00 0.00
8:52 pm 20:52 Cloudy 43 6.1 30 -1.1 60 60 ESE 5 7 30.37 1028 10 16 0.00 0.00
9:52 pm 21:52 Cloudy 41 5 31 -0.6 67 67 E 3 6 30.37 1029 10 16 0.00 0.00
10:52 pm 22:52 Cloudy 41 5 30 -1.1 65 65 N 3 6 30.38 1029 10 16 0.00 0.00
11:52 pm 23:52 Cloudy 41 5 32 0 70 70 ESE 3 6 30.38 1029 10 16 0.00 0.00

Powered by AerisWeather